owner,sensor,date,latitude,longitude,vertical_datum,sea_water_practical_salinity,qcFlag 
ENP,ioos.station.NOAA.NDBC:TPEF1:1,2019-09-01T01:00:00Z,25.4100,-80.9640,1.5,0.54,11111222 
ENP,ioos.station.NOAA.NDBC:TPEF1:1,2019-09-01T03:00:00Z,25.4100,-80.9640,1.5,0.55,11111222 
ENP,ioos.station.NOAA.NDBC:TPEF1:1,2019-09-01T04:00:00Z,25.4100,-80.9640,1.5,0.57,11111222 
ENP,ioos.station.NOAA.NDBC:TPEF1:1,2019-09-01T05:00:00Z,25.4100,-80.9640,1.5,0.57,11111222 
ENP,ioos.station.NOAA.NDBC:TPEF1:1,2019-09-01T06:00:00Z,25.4100,-80.9640,1.5,0.57,11111222 
ENP,ioos.station.NOAA.NDBC:TPEF1:1,2019-09-01T07:00:00Z,25.4100,-80.9640,1.5,0.57,11111222 
ENP,ioos.station.NOAA.NDBC:TPEF1:1,2019-09-01T08:00:00Z,25.4100,-80.9640,1.5,0.57,11111222 
ENP,ioos.station.NOAA.NDBC:TPEF1:1,2019-09-01T09:00:00Z,25.4100,-80.9640,1.5,0.57,11111222 
ENP,ioos.station.NOAA.NDBC:TPEF1:1,2019-09-01T10:00:00Z,25.4100,-80.9640,1.5,0.55,11111222 
ENP,ioos.station.NOAA.NDBC:TPEF1:1,2019-09-01T11:00:00Z,25.4100,-80.9640,1.5,0.54,11111222 
ENP,ioos.station.NOAA.NDBC:TPEF1:1,2019-09-01T12:00:00Z,25.4100,-80.9640,1.5,0.54,11111222 
ENP,ioos.station.NOAA.NDBC:TPEF1:1,2019-09-01T13:00:00Z,25.4100,-80.9640,1.5,0.54,11111222 
ENP,ioos.station.NOAA.NDBC:TPEF1:1,2019-09-01T14:00:00Z,25.4100,-80.9640,1.5,0.55,11111222 
ENP,ioos.station.NOAA.NDBC:TPEF1:1,2019-09-01T15:00:00Z,25.4100,-80.9640,1.5,0.55,11111222 
ENP,ioos.station.NOAA.NDBC:TPEF1:1,2019-09-01T16:00:00Z,25.4100,-80.9640,1.5,0.55,11111222 
ENP,ioos.station.NOAA.NDBC:TPEF1:1,2019-09-01T17:00:00Z,25.4100,-80.9640,1.5,0.55,11111222 
ENP,ioos.station.NOAA.NDBC:TPEF1:1,2019-09-01T18:00:00Z,25.4100,-80.9640,1.5,0.56,11111222 
ENP,ioos.station.NOAA.NDBC:TPEF1:1,2019-09-01T19:00:00Z,25.4100,-80.9640,1.5,0.55,11111222 
ENP,ioos.station.NOAA.NDBC:TPEF1:1,2019-09-01T20:00:00Z,25.4100,-80.9640,1.5,0.54,11111222 
ENP,ioos.station.NOAA.NDBC:TPEF1:1,2019-09-01T21:00:00Z,25.4100,-80.9640,1.5,0.53,11111222 
ENP,ioos.station.NOAA.NDBC:TPEF1:1,2019-09-01T22:00:00Z,25.4100,-80.9640,1.5,0.52,11111222 
ENP,ioos.station.NOAA.NDBC:TPEF1:1,2019-09-01T23:00:00Z,25.4100,-80.9640,1.5,0.52,11111222 
ENP,ioos.station.NOAA.NDBC:TPEF1:1,2019-09-02T00:00:00Z,25.4100,-80.9640,1.5,0.52,11111222 
ENP,ioos.station.NOAA.NDBC:TPEF1:1,2019-09-02T01:00:00Z,25.4100,-80.9640,1.5,0.52,11111222 
ENP,ioos.station.NOAA.NDBC:TPEF1:1,2019-09-02T03:00:00Z,25.4100,-80.9640,1.5,0.51,11111222 
ENP,ioos.station.NOAA.NDBC:TPEF1:1,2019-09-02T04:00:00Z,25.4100,-80.9640,1.5,0.51,11111222 
ENP,ioos.station.NOAA.NDBC:TPEF1:1,2019-09-02T05:00:00Z,25.4100,-80.9640,1.5,0.51,11111222 
ENP,ioos.station.NOAA.NDBC:TPEF1:1,2019-09-02T06:00:00Z,25.4100,-80.9640,1.5,0.51,11111222 
ENP,ioos.station.NOAA.NDBC:TPEF1:1,2019-09-02T07:00:00Z,25.4100,-80.9640,1.5,0.51,11111222 
ENP,ioos.station.NOAA.NDBC:TPEF1:1,2019-09-02T08:00:00Z,25.4100,-80.9640,1.5,0.51,11111222 
ENP,ioos.station.NOAA.NDBC:TPEF1:1,2019-09-02T09:00:00Z,25.4100,-80.9640,1.5,0.51,11111222 
ENP,ioos.station.NOAA.NDBC:TPEF1:1,2019-09-02T10:00:00Z,25.4100,-80.9640,1.5,0.51,11111222 
ENP,ioos.station.NOAA.NDBC:TPEF1:1,2019-09-02T11:00:00Z,25.4100,-80.9640,1.5,0.52,11111222 
ENP,ioos.station.NOAA.NDBC:TPEF1:1,2019-09-02T14:00:00Z,25.4100,-80.9640,1.5,0.54,11111222 
ENP,ioos.station.NOAA.NDBC:TPEF1:1,2019-09-02T15:00:00Z,25.4100,-80.9640,1.5,0.54,11111222 
ENP,ioos.station.NOAA.NDBC:TPEF1:1,2019-09-02T16:00:00Z,25.4100,-80.9640,1.5,0.55,11111222 
ENP,ioos.station.NOAA.NDBC:TPEF1:1,2019-09-02T17:00:00Z,25.4100,-80.9640,1.5,0.55,11111222 
ENP,ioos.station.NOAA.NDBC:TPEF1:1,2019-09-02T18:00:00Z,25.4100,-80.9640,1.5,0.55,11111222 
ENP,ioos.station.NOAA.NDBC:TPEF1:1,2019-09-02T19:00:00Z,25.4100,-80.9640,1.5,0.55,11111222 
ENP,ioos.station.NOAA.NDBC:TPEF1:1,2019-09-02T20:00:00Z,25.4100,-80.9640,1.5,0.55,11111222 
ENP,ioos.station.NOAA.NDBC:TPEF1:1,2019-09-02T21:00:00Z,25.4100,-80.9640,1.5,0.56,11111222 
ENP,ioos.station.NOAA.NDBC:TPEF1:1,2019-09-02T22:00:00Z,25.4100,-80.9640,1.5,0.56,11111222 
ENP,ioos.station.NOAA.NDBC:TPEF1:1,2019-09-02T23:00:00Z,25.4100,-80.9640,1.5,0.59,11111222 
ENP,ioos.station.NOAA.NDBC:TPEF1:1,2019-09-03T03:00:00Z,25.4100,-80.9640,1.5,0.58,11111222 
ENP,ioos.station.NOAA.NDBC:TPEF1:1,2019-09-03T04:00:00Z,25.4100,-80.9640,1.5,0.58,11111222 
ENP,ioos.station.NOAA.NDBC:TPEF1:1,2019-09-03T05:00:00Z,25.4100,-80.9640,1.5,0.58,11111222 
ENP,ioos.station.NOAA.NDBC:TPEF1:1,2019-09-03T06:00:00Z,25.4100,-80.9640,1.5,0.57,11111222 
ENP,ioos.station.NOAA.NDBC:TPEF1:1,2019-09-03T07:00:00Z,25.4100,-80.9640,1.5,0.57,11111222 
ENP,ioos.station.NOAA.NDBC:TPEF1:1,2019-09-03T08:00:00Z,25.4100,-80.9640,1.5,0.57,11111222 
ENP,ioos.station.NOAA.NDBC:TPEF1:1,2019-09-03T09:00:00Z,25.4100,-80.9640,1.5,0.57,11111222 
ENP,ioos.station.NOAA.NDBC:TPEF1:1,2019-09-03T10:00:00Z,25.4100,-80.9640,1.5,0.58,11111222 
ENP,ioos.station.NOAA.NDBC:TPEF1:1,2019-09-03T11:00:00Z,25.4100,-80.9640,1.5,0.64,11111222 
ENP,ioos.station.NOAA.NDBC:TPEF1:1,2019-09-03T12:00:00Z,25.4100,-80.9640,1.5,0.71,11111222 
ENP,ioos.station.NOAA.NDBC:TPEF1:1,2019-09-03T13:00:00Z,25.4100,-80.9640,1.5,0.77,11111222 
ENP,ioos.station.NOAA.NDBC:TPEF1:1,2019-09-03T14:00:00Z,25.4100,-80.9640,1.5,0.82,11111222 
ENP,ioos.station.NOAA.NDBC:TPEF1:1,2019-09-03T15:00:00Z,25.4100,-80.9640,1.5,0.82,11111222 
ENP,ioos.station.NOAA.NDBC:TPEF1:1,2019-09-03T16:00:00Z,25.4100,-80.9640,1.5,0.83,11111222 
ENP,ioos.station.NOAA.NDBC:TPEF1:1,2019-09-03T17:00:00Z,25.4100,-80.9640,1.5,0.84,11111222 
ENP,ioos.station.NOAA.NDBC:TPEF1:1,2019-09-03T18:00:00Z,25.4100,-80.9640,1.5,0.85,11111222 
ENP,ioos.station.NOAA.NDBC:TPEF1:1,2019-09-03T19:00:00Z,25.4100,-80.9640,1.5,0.82,11111222 
ENP,ioos.station.NOAA.NDBC:TPEF1:1,2019-09-03T20:00:00Z,25.4100,-80.9640,1.5,0.8,11111222 
ENP,ioos.station.NOAA.NDBC:TPEF1:1,2019-09-03T21:00:00Z,25.4100,-80.9640,1.5,0.81,11111222 
ENP,ioos.station.NOAA.NDBC:TPEF1:1,2019-09-03T22:00:00Z,25.4100,-80.9640,1.5,0.84,11111222 
ENP,ioos.station.NOAA.NDBC:TPEF1:1,2019-09-03T23:00:00Z,25.4100,-80.9640,1.5,0.93,11111222 
ENP,ioos.station.NOAA.NDBC:TPEF1:1,2019-09-04T01:00:00Z,25.4100,-80.9640,1.5,0.97,11111222 
ENP,ioos.station.NOAA.NDBC:TPEF1:1,2019-09-04T03:00:00Z,25.4100,-80.9640,1.5,0.97,11111222 
ENP,ioos.station.NOAA.NDBC:TPEF1:1,2019-09-04T04:00:00Z,25.4100,-80.9640,1.5,1.0,11111222 
ENP,ioos.station.NOAA.NDBC:TPEF1:1,2019-09-04T05:00:00Z,25.4100,-80.9640,1.5,1.03,11111222 
ENP,ioos.station.NOAA.NDBC:TPEF1:1,2019-09-04T06:00:00Z,25.4100,-80.9640,1.5,1.05,11111222 
ENP,ioos.station.NOAA.NDBC:TPEF1:1,2019-09-04T07:00:00Z,25.4100,-80.9640,1.5,1.03,11111222 
ENP,ioos.station.NOAA.NDBC:TPEF1:1,2019-09-04T08:00:00Z,25.4100,-80.9640,1.5,1.03,11111222 
ENP,ioos.station.NOAA.NDBC:TPEF1:1,2019-09-04T09:00:00Z,25.4100,-80.9640,1.5,1.03,11111222 
ENP,ioos.station.NOAA.NDBC:TPEF1:1,2019-09-04T10:00:00Z,25.4100,-80.9640,1.5,1.03,11111222 
ENP,ioos.station.NOAA.NDBC:TPEF1:1,2019-09-04T11:00:00Z,25.4100,-80.9640,1.5,1.02,11111222 
ENP,ioos.station.NOAA.NDBC:TPEF1:1,2019-09-04T12:00:00Z,25.4100,-80.9640,1.5,1.01,11111222 
ENP,ioos.station.NOAA.NDBC:TPEF1:1,2019-09-04T13:00:00Z,25.4100,-80.9640,1.5,1.02,11111222 
ENP,ioos.station.NOAA.NDBC:TPEF1:1,2019-09-04T14:00:00Z,25.4100,-80.9640,1.5,1.09,11111222 
ENP,ioos.station.NOAA.NDBC:TPEF1:1,2019-09-04T15:00:00Z,25.4100,-80.9640,1.5,1.1,11111222 
ENP,ioos.station.NOAA.NDBC:TPEF1:1,2019-09-04T16:00:00Z,25.4100,-80.9640,1.5,1.1,11111222 
ENP,ioos.station.NOAA.NDBC:TPEF1:1,2019-09-04T17:00:00Z,25.4100,-80.9640,1.5,1.12,11111222 
ENP,ioos.station.NOAA.NDBC:TPEF1:1,2019-09-04T18:00:00Z,25.4100,-80.9640,1.5,1.14,11111222 
ENP,ioos.station.NOAA.NDBC:TPEF1:1,2019-09-04T19:00:00Z,25.4100,-80.9640,1.5,1.16,11111222 
ENP,ioos.station.NOAA.NDBC:TPEF1:1,2019-09-04T20:00:00Z,25.4100,-80.9640,1.5,1.16,11111222 
ENP,ioos.station.NOAA.NDBC:TPEF1:1,2019-09-04T21:00:00Z,25.4100,-80.9640,1.5,1.13,11111222 
ENP,ioos.station.NOAA.NDBC:TPEF1:1,2019-09-04T22:00:00Z,25.4100,-80.9640,1.5,1.11,11111222 
ENP,ioos.station.NOAA.NDBC:TPEF1:1,2019-09-04T23:00:00Z,25.4100,-80.9640,1.5,1.09,11111222 
ENP,ioos.station.NOAA.NDBC:TPEF1:1,2019-09-05T00:00:00Z,25.4100,-80.9640,1.5,1.06,11111222 
ENP,ioos.station.NOAA.NDBC:TPEF1:1,2019-09-05T01:00:00Z,25.4100,-80.9640,1.5,1.05,11111222 
ENP,ioos.station.NOAA.NDBC:TPEF1:1,2019-09-05T03:00:00Z,25.4100,-80.9640,1.5,1.05,11111222 
ENP,ioos.station.NOAA.NDBC:TPEF1:1,2019-09-05T04:00:00Z,25.4100,-80.9640,1.5,1.09,11111222 
ENP,ioos.station.NOAA.NDBC:TPEF1:1,2019-09-05T05:00:00Z,25.4100,-80.9640,1.5,1.06,11111222 
ENP,ioos.station.NOAA.NDBC:TPEF1:1,2019-09-05T06:00:00Z,25.4100,-80.9640,1.5,1.03,11111222 
ENP,ioos.station.NOAA.NDBC:TPEF1:1,2019-09-05T07:00:00Z,25.4100,-80.9640,1.5,1.01,11111222 
ENP,ioos.station.NOAA.NDBC:TPEF1:1,2019-09-05T08:00:00Z,25.4100,-80.9640,1.5,1.01,11111222 
ENP,ioos.station.NOAA.NDBC:TPEF1:1,2019-09-05T09:00:00Z,25.4100,-80.9640,1.5,1.0,11111222 
ENP,ioos.station.NOAA.NDBC:TPEF1:1,2019-09-05T10:00:00Z,25.4100,-80.9640,1.5,0.98,11111222 
ENP,ioos.station.NOAA.NDBC:TPEF1:1,2019-09-05T11:00:00Z,25.4100,-80.9640,1.5,1.02,11111222 
ENP,ioos.station.NOAA.NDBC:TPEF1:1,2019-09-05T12:00:00Z,25.4100,-80.9640,1.5,1.16,11111222 
ENP,ioos.station.NOAA.NDBC:TPEF1:1,2019-09-05T13:00:00Z,25.4100,-80.9640,1.5,1.35,11111222 
ENP,ioos.station.NOAA.NDBC:TPEF1:1,2019-09-05T14:00:00Z,25.4100,-80.9640,1.5,1.12,11111222 
ENP,ioos.station.NOAA.NDBC:TPEF1:1,2019-09-05T15:00:00Z,25.4100,-80.9640,1.5,1.11,11111222 
ENP,ioos.station.NOAA.NDBC:TPEF1:1,2019-09-05T16:00:00Z,25.4100,-80.9640,1.5,1.0,11111222 
ENP,ioos.station.NOAA.NDBC:TPEF1:1,2019-09-05T17:00:00Z,25.4100,-80.9640,1.5,1.0,11111222 
ENP,ioos.station.NOAA.NDBC:TPEF1:1,2019-09-05T18:00:00Z,25.4100,-80.9640,1.5,1.0,11111222 
ENP,ioos.station.NOAA.NDBC:TPEF1:1,2019-09-05T19:00:00Z,25.4100,-80.9640,1.5,1.0,11111222 
ENP,ioos.station.NOAA.NDBC:TPEF1:1,2019-09-05T20:00:00Z,25.4100,-80.9640,1.5,1.01,11111222 
ENP,ioos.station.NOAA.NDBC:TPEF1:1,2019-09-05T21:00:00Z,25.4100,-80.9640,1.5,0.98,11111222 
ENP,ioos.station.NOAA.NDBC:TPEF1:1,2019-09-05T22:00:00Z,25.4100,-80.9640,1.5,0.87,11111222 
ENP,ioos.station.NOAA.NDBC:TPEF1:1,2019-09-05T23:00:00Z,25.4100,-80.9640,1.5,0.83,11111222 
ENP,ioos.station.NOAA.NDBC:TPEF1:1,2019-09-06T01:00:00Z,25.4100,-80.9640,1.5,0.77,11111222 
ENP,ioos.station.NOAA.NDBC:TPEF1:1,2019-09-06T03:00:00Z,25.4100,-80.9640,1.5,0.79,11111222 
ENP,ioos.station.NOAA.NDBC:TPEF1:1,2019-09-06T05:00:00Z,25.4100,-80.9640,1.5,0.82,11111222 
ENP,ioos.station.NOAA.NDBC:TPEF1:1,2019-09-06T06:00:00Z,25.4100,-80.9640,1.5,0.82,11111222 
ENP,ioos.station.NOAA.NDBC:TPEF1:1,2019-09-06T07:00:00Z,25.4100,-80.9640,1.5,0.82,11111222 
ENP,ioos.station.NOAA.NDBC:TPEF1:1,2019-09-06T08:00:00Z,25.4100,-80.9640,1.5,0.82,11111222 
ENP,ioos.station.NOAA.NDBC:TPEF1:1,2019-09-06T09:00:00Z,25.4100,-80.9640,1.5,0.82,11111222 
ENP,ioos.station.NOAA.NDBC:TPEF1:1,2019-09-06T10:00:00Z,25.4100,-80.9640,1.5,0.83,11111222 
ENP,ioos.station.NOAA.NDBC:TPEF1:1,2019-09-06T11:00:00Z,25.4100,-80.9640,1.5,0.85,11111222 
ENP,ioos.station.NOAA.NDBC:TPEF1:1,2019-09-06T12:00:00Z,25.4100,-80.9640,1.5,0.89,11111222 
ENP,ioos.station.NOAA.NDBC:TPEF1:1,2019-09-06T13:00:00Z,25.4100,-80.9640,1.5,1.17,11111222 
ENP,ioos.station.NOAA.NDBC:TPEF1:1,2019-09-06T14:00:00Z,25.4100,-80.9640,1.5,0.8,11111222 
ENP,ioos.station.NOAA.NDBC:TPEF1:1,2019-09-06T15:00:00Z,25.4100,-80.9640,1.5,0.74,11111222 
ENP,ioos.station.NOAA.NDBC:TPEF1:1,2019-09-06T16:00:00Z,25.4100,-80.9640,1.5,0.75,11111222 
ENP,ioos.station.NOAA.NDBC:TPEF1:1,2019-09-06T17:00:00Z,25.4100,-80.9640,1.5,0.75,11111222 
ENP,ioos.station.NOAA.NDBC:TPEF1:1,2019-09-06T18:00:00Z,25.4100,-80.9640,1.5,0.77,11111222 
ENP,ioos.station.NOAA.NDBC:TPEF1:1,2019-09-06T19:00:00Z,25.4100,-80.9640,1.5,0.78,11111222 
ENP,ioos.station.NOAA.NDBC:TPEF1:1,2019-09-06T20:00:00Z,25.4100,-80.9640,1.5,0.78,11111222 
ENP,ioos.station.NOAA.NDBC:TPEF1:1,2019-09-06T21:00:00Z,25.4100,-80.9640,1.5,0.83,11111222 
ENP,ioos.station.NOAA.NDBC:TPEF1:1,2019-09-06T22:00:00Z,25.4100,-80.9640,1.5,0.84,11111222 
ENP,ioos.station.NOAA.NDBC:TPEF1:1,2019-09-06T23:00:00Z,25.4100,-80.9640,1.5,0.84,11111222 
ENP,ioos.station.NOAA.NDBC:TPEF1:1,2019-09-07T01:00:00Z,25.4100,-80.9640,1.5,0.84,11111222 
ENP,ioos.station.NOAA.NDBC:TPEF1:1,2019-09-07T03:00:00Z,25.4100,-80.9640,1.5,0.84,11111222 
ENP,ioos.station.NOAA.NDBC:TPEF1:1,2019-09-07T04:00:00Z,25.4100,-80.9640,1.5,0.84,11111222 
ENP,ioos.station.NOAA.NDBC:TPEF1:1,2019-09-07T05:00:00Z,25.4100,-80.9640,1.5,0.85,11111222 
ENP,ioos.station.NOAA.NDBC:TPEF1:1,2019-09-07T06:00:00Z,25.4100,-80.9640,1.5,0.84,11111222 
ENP,ioos.station.NOAA.NDBC:TPEF1:1,2019-09-07T07:00:00Z,25.4100,-80.9640,1.5,0.84,11111222 
ENP,ioos.station.NOAA.NDBC:TPEF1:1,2019-09-07T08:00:00Z,25.4100,-80.9640,1.5,0.84,11111222 
ENP,ioos.station.NOAA.NDBC:TPEF1:1,2019-09-07T09:00:00Z,25.4100,-80.9640,1.5,0.84,11111222 
ENP,ioos.station.NOAA.NDBC:TPEF1:1,2019-09-07T10:00:00Z,25.4100,-80.9640,1.5,0.84,11111222 
ENP,ioos.station.NOAA.NDBC:TPEF1:1,2019-09-07T11:00:00Z,25.4100,-80.9640,1.5,0.84,11111222 
ENP,ioos.station.NOAA.NDBC:TPEF1:1,2019-09-07T12:00:00Z,25.4100,-80.9640,1.5,0.83,11111222 
ENP,ioos.station.NOAA.NDBC:TPEF1:1,2019-09-07T13:00:00Z,25.4100,-80.9640,1.5,0.83,11111222 
ENP,ioos.station.NOAA.NDBC:TPEF1:1,2019-09-07T14:00:00Z,25.4100,-80.9640,1.5,0.8,11111222 
ENP,ioos.station.NOAA.NDBC:TPEF1:1,2019-09-07T15:00:00Z,25.4100,-80.9640,1.5,0.79,11111222 
ENP,ioos.station.NOAA.NDBC:TPEF1:1,2019-09-07T16:00:00Z,25.4100,-80.9640,1.5,0.8,11111222 
ENP,ioos.station.NOAA.NDBC:TPEF1:1,2019-09-07T17:00:00Z,25.4100,-80.9640,1.5,0.81,11111222 
ENP,ioos.station.NOAA.NDBC:TPEF1:1,2019-09-07T18:00:00Z,25.4100,-80.9640,1.5,0.82,11111222 
ENP,ioos.station.NOAA.NDBC:TPEF1:1,2019-09-07T19:00:00Z,25.4100,-80.9640,1.5,0.91,11111222 
ENP,ioos.station.NOAA.NDBC:TPEF1:1,2019-09-07T20:00:00Z,25.4100,-80.9640,1.5,0.92,11111222 
ENP,ioos.station.NOAA.NDBC:TPEF1:1,2019-09-07T21:00:00Z,25.4100,-80.9640,1.5,0.93,11111222 
ENP,ioos.station.NOAA.NDBC:TPEF1:1,2019-09-07T22:00:00Z,25.4100,-80.9640,1.5,0.98,11111222 
ENP,ioos.station.NOAA.NDBC:TPEF1:1,2019-09-07T23:00:00Z,25.4100,-80.9640,1.5,1.01,11111222 
ENP,ioos.station.NOAA.NDBC:TPEF1:1,2019-09-08T00:00:00Z,25.4100,-80.9640,1.5,1.01,11111222 
ENP,ioos.station.NOAA.NDBC:TPEF1:1,2019-09-08T01:00:00Z,25.4100,-80.9640,1.5,1.0,11111222 
ENP,ioos.station.NOAA.NDBC:TPEF1:1,2019-09-08T03:00:00Z,25.4100,-80.9640,1.5,0.94,11111222 
ENP,ioos.station.NOAA.NDBC:TPEF1:1,2019-09-08T04:00:00Z,25.4100,-80.9640,1.5,0.93,11111222 
ENP,ioos.station.NOAA.NDBC:TPEF1:1,2019-09-08T05:00:00Z,25.4100,-80.9640,1.5,0.91,11111222 
ENP,ioos.station.NOAA.NDBC:TPEF1:1,2019-09-08T06:00:00Z,25.4100,-80.9640,1.5,0.92,11111222 
ENP,ioos.station.NOAA.NDBC:TPEF1:1,2019-09-08T07:00:00Z,25.4100,-80.9640,1.5,0.88,11111222 
ENP,ioos.station.NOAA.NDBC:TPEF1:1,2019-09-08T08:00:00Z,25.4100,-80.9640,1.5,0.86,11111222 
ENP,ioos.station.NOAA.NDBC:TPEF1:1,2019-09-08T09:00:00Z,25.4100,-80.9640,1.5,0.86,11111222 
ENP,ioos.station.NOAA.NDBC:TPEF1:1,2019-09-08T10:00:00Z,25.4100,-80.9640,1.5,0.86,11111222 
ENP,ioos.station.NOAA.NDBC:TPEF1:1,2019-09-08T11:00:00Z,25.4100,-80.9640,1.5,0.86,11111222 
ENP,ioos.station.NOAA.NDBC:TPEF1:1,2019-09-08T12:00:00Z,25.4100,-80.9640,1.5,0.85,11111222 
ENP,ioos.station.NOAA.NDBC:TPEF1:1,2019-09-08T13:00:00Z,25.4100,-80.9640,1.5,0.84,11111222 
ENP,ioos.station.NOAA.NDBC:TPEF1:1,2019-09-08T14:00:00Z,25.4100,-80.9640,1.5,0.81,11111222 
ENP,ioos.station.NOAA.NDBC:TPEF1:1,2019-09-08T15:00:00Z,25.4100,-80.9640,1.5,0.81,11111222 
ENP,ioos.station.NOAA.NDBC:TPEF1:1,2019-09-08T16:00:00Z,25.4100,-80.9640,1.5,0.8,11111222 
ENP,ioos.station.NOAA.NDBC:TPEF1:1,2019-09-08T17:00:00Z,25.4100,-80.9640,1.5,0.81,11111222 
ENP,ioos.station.NOAA.NDBC:TPEF1:1,2019-09-08T18:00:00Z,25.4100,-80.9640,1.5,0.81,11111222 
ENP,ioos.station.NOAA.NDBC:TPEF1:1,2019-09-08T19:00:00Z,25.4100,-80.9640,1.5,0.81,11111222 
ENP,ioos.station.NOAA.NDBC:TPEF1:1,2019-09-08T20:00:00Z,25.4100,-80.9640,1.5,0.82,11111222 
ENP,ioos.station.NOAA.NDBC:TPEF1:1,2019-09-08T21:00:00Z,25.4100,-80.9640,1.5,0.82,11111222 
ENP,ioos.station.NOAA.NDBC:TPEF1:1,2019-09-08T22:00:00Z,25.4100,-80.9640,1.5,0.82,11111222 
ENP,ioos.station.NOAA.NDBC:TPEF1:1,2019-09-09T00:00:00Z,25.4100,-80.9640,1.5,0.81,11111222 
ENP,ioos.station.NOAA.NDBC:TPEF1:1,2019-09-09T01:00:00Z,25.4100,-80.9640,1.5,0.81,11111222 
ENP,ioos.station.NOAA.NDBC:TPEF1:1,2019-09-09T03:00:00Z,25.4100,-80.9640,1.5,0.83,11111222 
ENP,ioos.station.NOAA.NDBC:TPEF1:1,2019-09-09T04:00:00Z,25.4100,-80.9640,1.5,0.82,11111222 
ENP,ioos.station.NOAA.NDBC:TPEF1:1,2019-09-09T05:00:00Z,25.4100,-80.9640,1.5,0.83,11111222 
ENP,ioos.station.NOAA.NDBC:TPEF1:1,2019-09-09T06:00:00Z,25.4100,-80.9640,1.5,0.82,11111222 
ENP,ioos.station.NOAA.NDBC:TPEF1:1,2019-09-09T07:00:00Z,25.4100,-80.9640,1.5,0.83,11111222 
ENP,ioos.station.NOAA.NDBC:TPEF1:1,2019-09-09T08:00:00Z,25.4100,-80.9640,1.5,0.82,11111222 
ENP,ioos.station.NOAA.NDBC:TPEF1:1,2019-09-09T09:00:00Z,25.4100,-80.9640,1.5,0.82,11111222 
ENP,ioos.station.NOAA.NDBC:TPEF1:1,2019-09-09T10:00:00Z,25.4100,-80.9640,1.5,0.82,11111222 
ENP,ioos.station.NOAA.NDBC:TPEF1:1,2019-09-09T11:00:00Z,25.4100,-80.9640,1.5,0.82,11111222 
ENP,ioos.station.NOAA.NDBC:TPEF1:1,2019-09-09T12:00:00Z,25.4100,-80.9640,1.5,0.84,11111222 
ENP,ioos.station.NOAA.NDBC:TPEF1:1,2019-09-09T13:00:00Z,25.4100,-80.9640,1.5,0.88,11111222 
ENP,ioos.station.NOAA.NDBC:TPEF1:1,2019-09-09T14:00:00Z,25.4100,-80.9640,1.5,0.87,11111222 
ENP,ioos.station.NOAA.NDBC:TPEF1:1,2019-09-09T15:00:00Z,25.4100,-80.9640,1.5,0.86,11111222 
ENP,ioos.station.NOAA.NDBC:TPEF1:1,2019-09-09T16:00:00Z,25.4100,-80.9640,1.5,0.81,11111222 
ENP,ioos.station.NOAA.NDBC:TPEF1:1,2019-09-09T20:00:00Z,25.4100,-80.9640,1.5,0.82,11111222 
ENP,ioos.station.NOAA.NDBC:TPEF1:1,2019-09-09T21:00:00Z,25.4100,-80.9640,1.5,0.85,11111222 
ENP,ioos.station.NOAA.NDBC:TPEF1:1,2019-09-09T22:00:00Z,25.4100,-80.9640,1.5,0.85,11111222 
ENP,ioos.station.NOAA.NDBC:TPEF1:1,2019-09-09T23:00:00Z,25.4100,-80.9640,1.5,0.87,11111222 
ENP,ioos.station.NOAA.NDBC:TPEF1:1,2019-09-10T00:00:00Z,25.4100,-80.9640,1.5,0.88,11111222 
ENP,ioos.station.NOAA.NDBC:TPEF1:1,2019-09-10T01:00:00Z,25.4100,-80.9640,1.5,0.87,11111222 
ENP,ioos.station.NOAA.NDBC:TPEF1:1,2019-09-10T03:00:00Z,25.4100,-80.9640,1.5,0.85,11111222 
ENP,ioos.station.NOAA.NDBC:TPEF1:1,2019-09-10T04:00:00Z,25.4100,-80.9640,1.5,0.82,11111222 
ENP,ioos.station.NOAA.NDBC:TPEF1:1,2019-09-10T05:00:00Z,25.4100,-80.9640,1.5,0.77,11111222 
ENP,ioos.station.NOAA.NDBC:TPEF1:1,2019-09-10T06:00:00Z,25.4100,-80.9640,1.5,0.76,11111222 
ENP,ioos.station.NOAA.NDBC:TPEF1:1,2019-09-10T07:00:00Z,25.4100,-80.9640,1.5,0.76,11111222 
ENP,ioos.station.NOAA.NDBC:TPEF1:1,2019-09-10T08:00:00Z,25.4100,-80.9640,1.5,0.76,11111222 
ENP,ioos.station.NOAA.NDBC:TPEF1:1,2019-09-10T09:00:00Z,25.4100,-80.9640,1.5,0.76,11111222 
ENP,ioos.station.NOAA.NDBC:TPEF1:1,2019-09-10T10:00:00Z,25.4100,-80.9640,1.5,0.76,11111222 
ENP,ioos.station.NOAA.NDBC:TPEF1:1,2019-09-10T11:00:00Z,25.4100,-80.9640,1.5,0.76,11111222 
ENP,ioos.station.NOAA.NDBC:TPEF1:1,2019-09-10T12:00:00Z,25.4100,-80.9640,1.5,0.75,11111222 
ENP,ioos.station.NOAA.NDBC:TPEF1:1,2019-09-10T13:00:00Z,25.4100,-80.9640,1.5,0.75,11111222 
ENP,ioos.station.NOAA.NDBC:TPEF1:1,2019-09-10T14:00:00Z,25.4100,-80.9640,1.5,0.75,11111222 
ENP,ioos.station.NOAA.NDBC:TPEF1:1,2019-09-10T15:00:00Z,25.4100,-80.9640,1.5,0.71,11111222 
ENP,ioos.station.NOAA.NDBC:TPEF1:1,2019-09-10T16:00:00Z,25.4100,-80.9640,1.5,0.71,11111222 
ENP,ioos.station.NOAA.NDBC:TPEF1:1,2019-09-10T17:00:00Z,25.4100,-80.9640,1.5,0.71,11111222 
ENP,ioos.station.NOAA.NDBC:TPEF1:1,2019-09-10T18:00:00Z,25.4100,-80.9640,1.5,0.7,11111222 
ENP,ioos.station.NOAA.NDBC:TPEF1:1,2019-09-10T19:00:00Z,25.4100,-80.9640,1.5,0.7,11111222 
ENP,ioos.station.NOAA.NDBC:TPEF1:1,2019-09-10T20:00:00Z,25.4100,-80.9640,1.5,0.69,11111222 
ENP,ioos.station.NOAA.NDBC:TPEF1:1,2019-09-10T21:00:00Z,25.4100,-80.9640,1.5,0.69,11111222 
ENP,ioos.station.NOAA.NDBC:TPEF1:1,2019-09-10T22:00:00Z,25.4100,-80.9640,1.5,0.69,11111222 
ENP,ioos.station.NOAA.NDBC:TPEF1:1,2019-09-10T23:00:00Z,25.4100,-80.9640,1.5,0.69,11111222 
ENP,ioos.station.NOAA.NDBC:TPEF1:1,2019-09-11T00:00:00Z,25.4100,-80.9640,1.5,0.69,11111222 
ENP,ioos.station.NOAA.NDBC:TPEF1:1,2019-09-11T01:00:00Z,25.4100,-80.9640,1.5,0.7,11111222 
ENP,ioos.station.NOAA.NDBC:TPEF1:1,2019-09-11T03:00:00Z,25.4100,-80.9640,1.5,0.71,11111222 
ENP,ioos.station.NOAA.NDBC:TPEF1:1,2019-09-11T04:00:00Z,25.4100,-80.9640,1.5,0.75,11111222 
ENP,ioos.station.NOAA.NDBC:TPEF1:1,2019-09-11T05:00:00Z,25.4100,-80.9640,1.5,0.77,11111222 
ENP,ioos.station.NOAA.NDBC:TPEF1:1,2019-09-11T06:00:00Z,25.4100,-80.9640,1.5,0.71,11111222 
ENP,ioos.station.NOAA.NDBC:TPEF1:1,2019-09-11T07:00:00Z,25.4100,-80.9640,1.5,0.71,11111222 
ENP,ioos.station.NOAA.NDBC:TPEF1:1,2019-09-11T08:00:00Z,25.4100,-80.9640,1.5,0.68,11111222 
ENP,ioos.station.NOAA.NDBC:TPEF1:1,2019-09-11T09:00:00Z,25.4100,-80.9640,1.5,0.65,11111222 
ENP,ioos.station.NOAA.NDBC:TPEF1:1,2019-09-11T10:00:00Z,25.4100,-80.9640,1.5,0.64,11111222 
ENP,ioos.station.NOAA.NDBC:TPEF1:1,2019-09-11T11:00:00Z,25.4100,-80.9640,1.5,0.63,11111222 
ENP,ioos.station.NOAA.NDBC:TPEF1:1,2019-09-11T12:00:00Z,25.4100,-80.9640,1.5,0.63,11111222 
ENP,ioos.station.NOAA.NDBC:TPEF1:1,2019-09-11T13:00:00Z,25.4100,-80.9640,1.5,0.67,11111222 
ENP,ioos.station.NOAA.NDBC:TPEF1:1,2019-09-11T14:00:00Z,25.4100,-80.9640,1.5,0.68,11111222 
ENP,ioos.station.NOAA.NDBC:TPEF1:1,2019-09-11T15:00:00Z,25.4100,-80.9640,1.5,0.69,11111222 
ENP,ioos.station.NOAA.NDBC:TPEF1:1,2019-09-11T16:00:00Z,25.4100,-80.9640,1.5,0.7,11111222 
ENP,ioos.station.NOAA.NDBC:TPEF1:1,2019-09-11T18:00:00Z,25.4100,-80.9640,1.5,0.72,11111222 
ENP,ioos.station.NOAA.NDBC:TPEF1:1,2019-09-11T19:00:00Z,25.4100,-80.9640,1.5,0.66,11111222 
ENP,ioos.station.NOAA.NDBC:TPEF1:1,2019-09-11T20:00:00Z,25.4100,-80.9640,1.5,0.64,11111222 
ENP,ioos.station.NOAA.NDBC:TPEF1:1,2019-09-11T21:00:00Z,25.4100,-80.9640,1.5,0.62,11111222 
ENP,ioos.station.NOAA.NDBC:TPEF1:1,2019-09-11T22:00:00Z,25.4100,-80.9640,1.5,0.61,11111222 
ENP,ioos.station.NOAA.NDBC:TPEF1:1,2019-09-11T23:00:00Z,25.4100,-80.9640,1.5,0.61,11111222 
ENP,ioos.station.NOAA.NDBC:TPEF1:1,2019-09-12T00:00:00Z,25.4100,-80.9640,1.5,0.63,11111222 
ENP,ioos.station.NOAA.NDBC:TPEF1:1,2019-09-12T01:00:00Z,25.4100,-80.9640,1.5,0.67,11111222 
ENP,ioos.station.NOAA.NDBC:TPEF1:1,2019-09-12T03:00:00Z,25.4100,-80.9640,1.5,0.76,11111222 
ENP,ioos.station.NOAA.NDBC:TPEF1:1,2019-09-12T04:00:00Z,25.4100,-80.9640,1.5,0.79,11111222 
ENP,ioos.station.NOAA.NDBC:TPEF1:1,2019-09-12T05:00:00Z,25.4100,-80.9640,1.5,0.8,11111222 
ENP,ioos.station.NOAA.NDBC:TPEF1:1,2019-09-12T06:00:00Z,25.4100,-80.9640,1.5,0.8,11111222 
ENP,ioos.station.NOAA.NDBC:TPEF1:1,2019-09-12T07:00:00Z,25.4100,-80.9640,1.5,0.72,11111222 
ENP,ioos.station.NOAA.NDBC:TPEF1:1,2019-09-12T08:00:00Z,25.4100,-80.9640,1.5,0.65,11111222 
ENP,ioos.station.NOAA.NDBC:TPEF1:1,2019-09-12T09:00:00Z,25.4100,-80.9640,1.5,0.62,11111222 
ENP,ioos.station.NOAA.NDBC:TPEF1:1,2019-09-12T10:00:00Z,25.4100,-80.9640,1.5,0.61,11111222 
ENP,ioos.station.NOAA.NDBC:TPEF1:1,2019-09-12T11:00:00Z,25.4100,-80.9640,1.5,0.65,11111222 
ENP,ioos.station.NOAA.NDBC:TPEF1:1,2019-09-12T12:00:00Z,25.4100,-80.9640,1.5,0.66,11111222 
ENP,ioos.station.NOAA.NDBC:TPEF1:1,2019-09-12T13:00:00Z,25.4100,-80.9640,1.5,0.68,11111222 
ENP,ioos.station.NOAA.NDBC:TPEF1:1,2019-09-12T14:00:00Z,25.4100,-80.9640,1.5,0.75,11111222 
ENP,ioos.station.NOAA.NDBC:TPEF1:1,2019-09-13T18:00:00Z,25.4100,-80.9640,1.5,0.83,11111222 
ENP,ioos.station.NOAA.NDBC:TPEF1:1,2019-09-13T19:00:00Z,25.4100,-80.9640,1.5,0.83,11111222 
ENP,ioos.station.NOAA.NDBC:TPEF1:1,2019-09-13T20:00:00Z,25.4100,-80.9640,1.5,0.81,11111222 
ENP,ioos.station.NOAA.NDBC:TPEF1:1,2019-09-13T21:00:00Z,25.4100,-80.9640,1.5,0.74,11111222 
ENP,ioos.station.NOAA.NDBC:TPEF1:1,2019-09-13T22:00:00Z,25.4100,-80.9640,1.5,0.69,11111222 
ENP,ioos.station.NOAA.NDBC:TPEF1:1,2019-09-13T23:00:00Z,25.4100,-80.9640,1.5,0.7,11111222 
ENP,ioos.station.NOAA.NDBC:TPEF1:1,2019-09-14T01:00:00Z,25.4100,-80.9640,1.5,0.7,11111222 